Theta_e
283 283 283 283 282 282 282 282 282 282 282 282 283 282 282 282 282 282 281 281 282 283 284 284 285 286 287 287 285 287 286 284 284 287 283 282 282 283 284 287 288 287 289
281 281 281 281 280 280 280 280 280 281 281 280 280 281 281 281 281 281 281 281 281 281 282 282 283 286 284 285 286 285 285 286 285 284 287 280 281 282 284 284 286 286 286
281 280 280 279 279 279 279 279 280 280 279 279 279 279 279 280 279 280 280 280 281 281 281 281 281 282 283 284 285 285 286 286 285 284 285 282 280 280 281 281 284 283 284
280 279 278 278 279 279 279 279 278 279 278 278 279 279 279 279 279 279 279 279 280 281 282 282 282 282 281 282 283 284 285 285 285 284 284 284 280 280 281 281 279 281 282
278 278 278 278 279 278 278 278 278 278 278 278 278 278 278 278 278 277 278 279 279 280 280 281 282 283 284 285 283 283 284 284 284 284 283 283 279 278 279 281 282 282 281
277 278 278 278 278 278 278 277 277 277 276 276 276 276 276 277 280 281 280 278 278 278 278 279 280 281 282 285 286 287 287 283 282 283 283 283 283 281 282 282 281 280 279
277 276 276 276 274 275 274 273 273 272 272 272 273 273 274 275 279 280 280 279 278 277 276 277 278 279 280 280 283 285 285 288 289 286 283 283 284 284 283 281 281 282 282
273 271 272 272 270 271 270 270 269 269 269 269 269 269 270 271 275 276 276 275 275 276 276 276 275 276 277 278 279 280 281 282 283 284 286 286 287 286 286 284 283 282 284
272 272 270 269 266 268 265 266 266 266 266 265 267 266 266 266 271 272 272 271 271 272 273 273 273 273 276 278 276 276 278 280 285 287 288 289 290 291 290 285 282 280 278
270 269 268 267 262 263 264 263 264 263 264 265 264 264 264 263 268 270 271 269 267 269 270 272 274 273 276 277 275 274 275 278 280 281 282 285 287 287 289 289 285 281 280
267 267 266 265 263 262 262 262 261 261 262 261 261 262 262 263 264 269 271 269 268 268 268 269 271 274 275 276 277 275 276 279 280 281 281 281 282 282 284 286 288 284 281
265 264 262 260 260 262 259 260 260 259 259 259 260 261 263 264 266 268 270 272 272 269 268 269 269 272 274 275 274 276 279 280 278 279 281 281 281 281 282 283 285 287 285
257 256 256 258 260 260 258 259 259 259 259 259 260 260 261 263 264 268 270 271 272 269 269 270 274 275 275 274 274 274 274 272 274 277 279 281 281 282 282 283 284 285 285
251 255 258 258 259 259 260 260 259 258 258 259 259 260 262 264 266 267 268 268 270 270 271 269 270 272 274 274 272 272 272 272 272 273 279 281 283 281 281 282 281 282 282
255 258 258 258 258 259 260 260 260 262 262 262 264 265 265 265 266 271 272 271 271 273 273 273 271 268 266 266 268 270 271 271 271 275 277 280 281 281 280 282 281 281 279
255 258 258 259 259 260 259 259 264 266 268 270 271 269 268 271 272 274 274 275 275 276 273 270 269 269 269 269 268 268 269 270 271 277 278 277 277 279 279 280 280 279 276
251 256 258 258 258 258 258 258 257 261 266 267 268 269 270 271 271 272 273 274 274 273 268 268 267 268 268 269 268 268 268 270 272 274 276 276 277 279 279 278 277 278 275
250 255 255 257 257 258 258 258 258 257 257 259 264 266 268 269 270 271 270 269 261 263 263 264 265 266 267 268 268 268 269 270 271 273 276 277 278 279 277 277 277 276 275
251 253 253 257 257 257 257 257 257 257 257 258 259 262 263 266 268 267 267 260 259 260 261 262 263 263 264 266 268 268 268 269 271 273 275 276 278 279 278 277 277 275 275
250 254 257 254 255 255 255 255 256 256 257 257 257 258 260 263 258 259 259 259 259 259 260 260 262 263 266 268 269 269 269 269 271 272 274 276 277 277 277 276 275 274 275
250 251 254 254 252 252 253 253 255 255 256 256 257 259 268 260 258 258 259 259 259 259 259 260 261 262 264 266 267 271 271 271 273 274 275 277 276 275 276 276 274 274 274
248 248 250 251 251 252 251 252 254 254 255 255 256 257 264 258 258 258 259 259 260 260 260 260 260 261 263 264 265 266 268 269 272 273 272 272 273 272 273 272 272 272 270
249 251 253 251 249 251 250 249 251 252 253 254 255 255 256 256 257 258 259 259 260 260 261 261 261 262 264 264 265 266 265 266 268 270 270 270 270 270 270 270 269 269 268
253 254 253 249 247 248 248 249 251 252 252 252 252 254 254 255 256 257 258 259 259 260 261 261 261 261 262 264 265 265 266 267 268 268 268 268 267 268 268 268 268 268 267
253 253 251 248 245 247 246 246 249 248 249 250 252 252 253 253 254 254 256 257 258 258 259 260 261 261 263 264 265 265 266 266 266 267 267 267 266 266 266 266 266 266 266
254 253 250 248 247 245 244 246 247 248 248 251 251 251 252 252 253 254 254 255 256 257 258 259 260 260 262 265 266 269 269 269 266 266 266 266 265 265 265 265 264 264 264
Wind_Speed
4 3 4 5 5 6 5 4 5 5 5 6 6 6 7 7 9 9 8 7 7 8 6 5 6 7 7 6 4 7 8 6 14 11 4 5 6 8 7 10 10 11 12
1 4 6 6 6 7 6 7 7 8 9 8 8 9 7 6 6 7 9 9 11 11 10 8 7 6 7 7 7 9 9 9 10 16 10 5 8 8 10 11 10 10 11
5 4 2 2 3 6 6 7 7 8 9 10 9 10 12 12 11 10 9 9 10 11 10 10 10 8 9 7 9 10 9 9 10 11 11 5 5 2 4 4 9 9 8
4 3 2 4 5 5 6 6 6 6 7 9 10 11 11 12 13 13 13 12 11 11 11 12 11 11 11 10 9 11 11 11 11 11 11 9 6 4 5 6 6 6 9
0 2 4 4 5 5 6 6 7 7 8 9 11 12 12 12 10 12 13 13 14 16 14 12 11 13 19 18 10 10 11 11 11 11 11 9 6 4 7 5 10 7 10
3 4 5 6 9 9 9 9 10 11 12 13 14 14 15 11 22 26 22 15 16 16 17 17 15 16 16 25 27 27 22 13 14 12 12 14 14 10 8 9 9 8 9
5 6 6 6 6 8 10 13 14 15 15 15 15 15 16 16 26 28 29 16 16 16 17 17 16 13 17 16 21 27 27 28 28 17 17 17 15 10 9 11 12 12 14
2 3 4 5 6 10 11 12 13 12 14 15 16 16 17 15 28 30 30 20 17 18 17 18 18 19 19 20 19 19 19 17 19 15 18 19 17 12 12 12 14 15 12
3 2 3 4 5 8 9 12 12 13 13 14 14 16 16 16 26 28 26 16 17 19 18 19 19 21 28 33 23 23 23 21 22 29 30 29 26 26 20 8 11 10 11
2 5 6 5 3 8 10 11 11 11 14 12 15 14 17 16 23 27 23 12 15 14 16 17 25 23 32 34 23 21 22 22 19 18 15 21 25 20 26 19 11 14 13
3 5 5 6 8 9 10 9 11 12 13 13 14 13 14 15 16 25 26 14 12 13 13 13 12 27 32 33 34 21 20 21 23 21 16 14 13 12 11 15 15 13 14
1 4 6 6 7 8 10 10 10 11 11 12 13 12 10 13 20 22 26 27 25 16 15 13 15 29 31 32 29 35 36 30 16 15 13 14 14 12 11 12 17 15 14
3 6 6 7 8 9 9 11 9 8 9 11 11 11 12 11 12 26 29 30 29 20 14 22 35 35 36 29 28 32 30 16 16 16 16 14 13 13 13 12 13 14 13
5 7 6 7 8 8 7 8 7 8 9 10 12 12 12 11 11 10 12 14 24 21 24 20 24 29 33 29 19 17 13 14 15 17 17 13 9 10 11 11 12 11 10
6 6 6 5 6 8 8 9 8 9 12 12 12 12 13 12 12 24 23 15 14 18 22 14 11 11 12 12 12 13 12 13 14 17 19 11 9 8 11 10 11 10 10
5 5 5 6 6 7 8 9 18 21 25 27 28 21 12 25 31 31 32 32 32 34 16 13 12 12 13 13 12 12 12 15 12 12 13 9 8 8 9 10 10 10 10
5 6 5 6 6 7 8 8 10 17 27 23 22 25 27 27 29 30 31 31 30 27 11 11 13 13 14 13 12 12 13 12 13 13 10 8 9 11 13 11 9 10 10
5 8 5 5 6 7 8 8 8 9 12 17 18 22 24 27 29 29 28 22 11 11 9 11 13 14 14 13 11 10 10 12 11 11 8 8 8 9 8 10 9 12 10
4 4 3 5 6 7 8 8 7 9 9 10 12 16 17 26 25 23 23 8 10 11 11 11 12 13 14 14 10 9 12 11 10 10 9 9 7 8 9 10 9 13 13
4 7 6 4 5 6 6 6 7 8 8 8 9 10 13 11 12 12 10 10 10 10 11 12 12 13 13 11 10 10 10 11 12 10 10 8 7 7 7 7 9 10 10
3 3 6 5 4 5 5 5 6 7 8 8 8 10 23 10 10 10 10 10 10 10 11 11 12 12 12 12 11 10 11 11 11 11 10 9 7 7 6 7 7 8 7
3 3 3 4 4 4 5 4 5 7 7 7 9 8 21 7 8 9 10 10 10 9 9 10 10 10 11 11 11 11 9 8 6 3 2 2 2 3 4 5 5 6 7
2 3 3 3 3 5 4 3 4 5 6 6 7 8 8 8 9 9 10 10 10 10 10 9 10 11 11 10 10 9 8 8 6 5 4 4 4 4 5 6 6 7 7
3 3 3 3 3 3 3 4 5 6 6 5 5 7 7 8 9 10 10 10 10 10 10 10 10 14 13 11 9 9 9 8 7 6 6 5 6 6 6 6 6 7 8
2 3 3 3 3 4 3 4 4 5 5 5 6 6 7 7 8 8 9 9 10 10 11 11 10 14 16 19 11 12 11 13 11 10 6 8 9 9 7 7 8 8 10
3 3 3 2 3 3 3 4 4 5 5 6 6 6 6 7 8 8 8 9 9 10 12 9 12 17 18 14 18 15 11 12 11 13 7 7 7 7 7 9 12 9 10
Wind_Direction
41 41 30 22 9 359 1 335 354 349 343 334 324 309 312 324 328 332 330 312 317 307 295 270 270 265 273 267 239 243 244 229 260 273 238 229 213 207 213 211 212 208 216
329 14 8 352 342 341 342 340 342 333 330 330 328 319 306 290 284 292 304 313 313 307 304 302 286 283 269 266 268 257 245 242 248 264 263 231 220 215 214 213 213 216 215
193 188 215 275 306 324 323 321 327 324 321 317 317 312 311 314 316 309 293 279 280 286 288 291 289 287 282 271 264 267 263 256 250 253 258 225 217 190 202 213 211 217 218
211 229 289 307 312 314 312 308 297 288 290 294 294 295 294 296 297 302 301 297 288 278 274 273 277 277 273 272 264 264 264 258 255 257 256 248 215 198 212 201 216 210 220
230 350 318 292 285 293 298 295 293 292 293 287 292 294 295 291 293 301 294 291 292 293 286 277 268 262 262 262 262 259 254 255 257 255 257 249 216 195 206 188 225 206 221
30 346 336 349 349 342 340 336 327 318 315 310 303 301 297 290 293 296 298 294 293 291 290 289 284 276 263 266 267 266 256 249 248 251 257 250 242 222 215 209 207 203 237
18 2 354 357 359 349 337 328 322 318 315 308 305 303 298 296 300 300 298 293 290 284 284 285 284 279 282 278 275 272 270 266 255 250 250 249 255 235 210 214 209 220 231
22 344 11 17 343 327 320 315 311 307 307 306 305 305 299 300 308 309 307 299 292 284 279 278 278 282 281 285 282 273 266 260 258 254 248 253 249 242 231 215 218 225 240
355 38 16 347 314 314 304 302 303 302 299 299 297 302 302 303 308 306 305 296 286 283 282 280 277 275 275 277 277 275 273 267 260 258 252 252 252 252 243 215 222 219 231
33 341 328 314 291 300 298 298 293 290 291 296 296 296 296 297 302 301 300 290 286 286 282 280 276 273 273 270 266 265 267 263 262 261 258 255 252 251 250 243 217 217 226
351 317 313 308 300 291 287 288 291 291 290 291 290 291 289 287 287 293 296 292 290 287 283 284 285 290 290 288 284 277 268 269 262 257 252 247 242 234 236 238 224 211 218
305 305 293 286 288 292 285 287 287 284 288 292 292 290 285 283 282 286 291 290 288 289 288 282 280 285 285 280 274 277 278 280 275 262 243 237 234 232 227 230 237 230 227
305 281 278 281 277 275 279 287 287 288 294 293 291 290 286 281 275 281 283 285 284 277 269 270 276 283 284 290 293 286 280 278 274 266 243 242 225 224 226 223 227 236 234
277 277 276 272 282 280 273 281 285 292 292 286 282 281 281 280 279 280 274 273 273 274 270 269 263 268 271 274 281 274 261 264 270 262 260 234 222 216 218 218 219 216 224
268 277 281 275 280 287 275 282 283 281 279 282 286 290 294 296 290 291 300 296 287 280 282 280 272 256 254 256 254 255 259 257 266 252 247 226 222 207 215 209 214 213 213
281 284 287 294 294 291 292 292 294 301 301 301 302 304 300 302 306 305 308 307 303 299 289 282 283 284 278 271 264 263 261 268 269 264 248 243 219 224 223 208 207 205 204
253 278 289 295 291 292 295 296 305 313 308 310 313 318 315 314 322 316 313 314 318 316 311 307 295 288 282 276 267 261 262 261 266 277 238 235 237 234 212 200 199 202 202
260 270 270 280 285 288 290 294 300 303 308 315 323 324 328 325 323 325 333 335 323 322 309 302 298 295 289 281 266 263 262 263 261 264 260 236 236 236 198 205 200 205 198
270 265 260 277 284 285 288 290 296 299 300 299 310 324 319 321 333 338 338 325 317 314 312 307 303 297 287 280 263 251 255 263 266 277 265 252 247 241 218 211 203 194 192
257 266 274 281 286 288 288 289 302 300 299 301 313 319 313 339 340 337 335 328 324 318 315 312 310 308 313 293 268 249 241 251 261 259 258 253 237 220 215 194 191 190 196
248 257 267 280 274 276 279 287 298 300 300 307 311 317 333 351 324 326 328 329 326 323 320 319 318 319 322 326 324 316 241 241 245 249 246 242 210 212 205 192 186 190 171
235 248 264 266 273 278 275 279 298 295 299 310 316 318 337 331 328 328 330 330 329 325 322 321 321 327 328 328 332 335 345 2 350 353 48 72 94 108 126 132 136 134 134
238 263 278 279 272 282 282 282 283 291 302 307 311 318 327 328 329 332 332 332 331 331 331 332 332 333 339 337 339 343 349 353 351 9 39 56 67 82 99 111 120 123 131
238 262 283 277 290 282 290 293 295 296 295 299 304 314 318 322 324 326 329 330 332 334 336 337 337 336 337 342 347 351 356 2 4 16 35 60 69 75 84 90 100 110 116
245 264 265 266 279 287 306 293 294 298 292 298 304 306 311 313 315 319 323 326 329 331 334 337 339 339 347 351 351 359 11 20 26 28 35 58 69 73 80 86 94 92 99
261 261 256 268 272 276 276 287 292 295 296 303 299 304 306 309 309 313 318 325 328 328 329 333 336 340 343 356 358 8 23 35 34 34 40 52 64 69 79 89 93 96 97